Chehalis, WA
on Thursday, January 24, 2013

Thursday
Previous Day Next Day
Daily Summary
 ActualAverage (KOLM)Record (KOLM)
Temperature
Mean Temperature °F 40°F  
Max Temperature 46°F 47°F 56°F (1951)
Min Temperature 35°F 34°F 1°F (1949)
Degree Days
Heating Degree Days 24 25  
Month to date heating degree days 610  
Since 1 July heating degree days 2880  
Cooling Degree Days 0 0  
Month to date cooling degree days 0  
Year to date cooling degree days 0  
Moisture
Dew Point 37°F   
Average Humidity 89    
Maximum Humidity 100    
Minimum Humidity 71    
Precipitation
Precipitation 0.06 in 0.24 in 2.47 in (2002)
Month to date precipitation 6.21  
Year to date precipitation 6.21  
Wind
Wind Speed 6 mph   
Max Wind Speed 10 mph   
Max Gust Speed mph   
Visibility 8 miles   
Events Rain   

Key: T is trace of precipitation, MM is missing value
Source: NWS Daily Summary
Time(PST)TemperatureDew PointHumidity Pressure Visibility Wind DirectionWind SpeedGust SpeedPrecipitationEvents Conditions
12:15 AM 37.4°F 35.6°F 93% 30.20 in 7.0 miles South 6.9 mph - N/A   Overcast
12:35 AM 37.4°F 35.6°F 93% 30.20 in 7.0 miles South 5.8 mph - N/A   Overcast
12:55 AM 35.6°F 35.6°F 100% 30.21 in 7.0 miles SSW 5.8 mph - N/A   Overcast
1:15 AM 35.6°F 35.6°F 100% 30.22 in 7.0 miles SSW 4.6 mph - N/A   Overcast
1:35 AM 35.6°F 35.6°F 100% 30.22 in 7.0 miles South 5.8 mph - N/A   Overcast
1:55 AM 35.6°F 33.8°F 93% 30.22 in 7.0 miles South 6.9 mph - N/A   Scattered Clouds
2:15 AM 35.6°F 33.8°F 93% 30.22 in 7.0 miles South 5.8 mph - N/A   Partly Cloudy
2:35 AM 35.6°F 33.8°F 93% 30.23 in 7.0 miles SSW 5.8 mph - N/A   Partly Cloudy
2:55 AM 35.6°F 33.8°F 93% 30.24 in 7.0 miles SSW 5.8 mph - N/A   Mostly Cloudy
3:15 AM 35.6°F 33.8°F 93% 30.24 in 5.0 miles SSW 5.8 mph - N/A   Overcast
3:35 AM 35.6°F 33.8°F 93% 30.23 in 3.0 miles South 8.1 mph - N/A   Overcast
3:55 AM 35.6°F 33.8°F 93% 30.23 in 3.0 miles South 6.9 mph - N/A   Overcast
4:15 AM 35.6°F 35.6°F 100% 30.22 in 3.0 miles South 4.6 mph - N/A   Overcast
4:35 AM 35.6°F 35.6°F 100% 30.22 in 4.0 miles South 5.8 mph - N/A   Overcast
4:55 AM 35.6°F 35.6°F 100% 30.23 in 5.0 miles South 5.8 mph - N/A   Overcast
5:15 AM 35.6°F 35.6°F 100% 30.23 in 5.0 miles South 5.8 mph - N/A   Overcast
5:35 AM 35.6°F 35.6°F 100% 30.23 in 5.0 miles South 5.8 mph - N/A   Overcast
5:55 AM 35.6°F 35.6°F 100% 30.24 in 5.0 miles SSW 4.6 mph - N/A   Overcast
6:15 AM 35.6°F 33.8°F 93% 30.23 in 6.0 miles South 3.5 mph - N/A   Overcast
6:35 AM 35.6°F 33.8°F 93% 30.22 in 7.0 miles SSW 4.6 mph - N/A   Overcast
6:55 AM 35.6°F 33.8°F 93% 30.21 in 7.0 miles Calm Calm - N/A   Overcast
7:15 AM 35.6°F 33.8°F 93% 30.21 in 7.0 miles SW 4.6 mph - N/A   Overcast
7:35 AM 35.6°F 33.8°F 93% 30.21 in 8.0 miles SW 3.5 mph - N/A   Overcast
7:55 AM 35.6°F 33.8°F 93% 30.21 in 8.0 miles SSW 3.5 mph - N/A   Overcast
8:15 AM 35.6°F 35.6°F 100% 30.20 in 8.0 miles SSW 3.5 mph - N/A   Overcast
8:35 AM 35.6°F 35.6°F 100% 30.20 in 7.0 miles Calm Calm - N/A   Overcast
8:55 AM 37.4°F 35.6°F 93% 30.20 in 8.0 miles Calm Calm - N/A   Overcast
9:15 AM 37.4°F 35.6°F 93% 30.20 in 9.0 miles SSW 3.5 mph - N/A   Overcast
9:35 AM 39.2°F 35.6°F 87% 30.20 in 4.0 miles SSW 5.8 mph - N/A   Mostly Cloudy
9:55 AM 39.2°F 35.6°F 87% 30.19 in 10.0 miles SSW 4.6 mph - 0.01 in   Partly Cloudy
10:15 AM 39.2°F 37.4°F 93% 30.19 in 10.0 miles SSW 4.6 mph - N/A   Partly Cloudy
10:35 AM 41.0°F 37.4°F 87% 30.18 in 10.0 miles South 3.5 mph - N/A   Partly Cloudy
10:55 AM 41.0°F 37.4°F 87% 30.19 in 10.0 miles Calm Calm - N/A   Clear
11:15 AM 41.0°F 37.4°F 87% 30.18 in 10.0 miles Calm Calm - N/A   Clear
11:35 AM 44.6°F 39.2°F 81% 30.17 in 10.0 miles SSW 3.5 mph - N/A   Clear
11:55 AM 44.6°F 39.2°F 81% 30.17 in 10.0 miles South 4.6 mph - N/A   Clear
12:15 PM 46.4°F 39.2°F 76% 30.15 in 10.0 miles South 6.9 mph - N/A   Clear
12:35 PM 46.4°F 37.4°F 71% 30.13 in 10.0 miles South 6.9 mph - N/A   Clear
12:55 PM 46.4°F 37.4°F 71% 30.12 in 10.0 miles SSW 6.9 mph - N/A   Clear
1:15 PM 46.4°F 37.4°F 71% 30.12 in 10.0 miles SSW 5.8 mph - N/A   Clear
1:35 PM 46.4°F 37.4°F 71% 30.12 in 10.0 miles South 5.8 mph - N/A   Clear
1:55 PM 46.4°F 37.4°F 71% 30.10 in 10.0 miles SE 5.8 mph - N/A   Clear
2:15 PM 46.4°F 37.4°F 71% 30.10 in 10.0 miles South 5.8 mph - N/A   Clear
2:35 PM 46.4°F 37.4°F 71% 30.10 in 10.0 miles South 5.8 mph - N/A   Scattered Clouds
2:55 PM 46.4°F 37.4°F 71% 30.09 in 10.0 miles SSW 4.6 mph - N/A   Mostly Cloudy
3:15 PM 46.4°F 37.4°F 71% 30.09 in 10.0 miles SW 4.6 mph - N/A   Overcast
3:35 PM 44.6°F 37.4°F 76% 30.10 in 10.0 miles SW 4.6 mph - N/A   Overcast
3:55 PM 44.6°F 37.4°F 76% 30.10 in 10.0 miles South 3.5 mph - N/A   Overcast
4:15 PM 44.6°F 39.2°F 81% 30.10 in 10.0 miles SSE 3.5 mph - N/A   Overcast
4:35 PM 44.6°F 39.2°F 81% 30.10 in 7.0 miles SSW 4.6 mph - N/A   Mostly Cloudy
4:55 PM 42.8°F 39.2°F 87% 30.11 in 9.0 miles SW 4.6 mph - 0.01 in Rain Light Rain
5:15 PM 42.8°F 39.2°F 87% 30.11 in 8.0 miles South 4.6 mph - N/A Rain Light Rain
5:35 PM 42.8°F 39.2°F 87% 30.10 in 8.0 miles SSE 5.8 mph - N/A Rain Light Rain
5:55 PM 42.8°F 39.2°F 87% 30.10 in 6.0 miles South 9.2 mph - 0.01 in Rain Light Rain
6:15 PM 41.0°F 39.2°F 93% 30.09 in 6.0 miles South 9.2 mph - N/A Rain Light Rain
6:35 PM 41.0°F 39.2°F 93% 30.10 in 10.0 miles SSW 8.1 mph - N/A   Overcast
6:55 PM 41.0°F 39.2°F 93% 30.09 in 7.0 miles South 8.1 mph - N/A Rain Light Rain
7:15 PM 41.0°F 39.2°F 93% 30.10 in 3.0 miles South 6.9 mph - N/A Rain Light Rain
7:35 PM 41.0°F 39.2°F 93% 30.10 in 3.0 miles South 5.8 mph - N/A Rain Light Rain
7:55 PM 41.0°F 41.0°F 100% 30.09 in 4.0 miles South 5.8 mph - N/A Rain Light Rain
8:15 PM 41.0°F 41.0°F 100% 30.09 in 5.0 miles SSE 8.1 mph - N/A Rain Light Rain
8:35 PM 41.0°F 41.0°F 100% 30.09 in 7.0 miles South 6.9 mph - 0.01 in Rain Light Rain
8:55 PM 41.0°F 41.0°F 100% 30.09 in 7.0 miles South 6.9 mph - 0.01 in   Overcast
9:15 PM 42.8°F 41.0°F 93% 30.09 in 5.0 miles South 8.1 mph - 0.01 in Rain Light Rain
9:35 PM 42.8°F 41.0°F 93% 30.09 in 5.0 miles South 9.2 mph - 0.02 in Rain Light Rain
9:55 PM 42.8°F 41.0°F 93% 30.09 in 8.0 miles South 9.2 mph - 0.02 in Rain Light Rain
10:15 PM 42.8°F 41.0°F 93% 30.09 in 10.0 miles South 9.2 mph - N/A Rain Light Rain
10:35 PM 42.8°F 41.0°F 93% 30.09 in 10.0 miles South 9.2 mph - N/A   Overcast
10:55 PM 44.6°F 41.0°F 87% 30.08 in 10.0 miles South 10.4 mph - N/A   Overcast
11:15 PM 44.6°F 41.0°F 87% 30.09 in 10.0 miles South 9.2 mph - N/A   Overcast
11:55 PM 44.6°F 41.0°F 87% 30.09 in 8.0 miles South 6.9 mph - N/A   Overcast
Moon Phase
Jan. 24 Jan. 26 Feb. 03 Feb. 10 Feb. 17
Sunrise:07:44 AM (PST) Moon Rise:03:09 PM (PST)
Sunset:05:04 PM (PST) Moon Set:05:48 AM (PST)

Copyright © 2014 The Weather Underground, Inc.